Content
SEND FEEDBACK

Daily
Averages
Monthly
Summary
United States of America

LINCOLN, ILLINOIS


Home > North America > United States > Illinois
Elevation: 555 feet     Latitude: 40 09N     Longitude: 089 24W

WEATHER
 
SELECT A DAY
Number of Records: 334,064;   Date Range: 9/6/01 - 12/19/14
 
SHARE

PRINT THIS DATA

[ ← Previous Day ]
WEATHER ALMANAC - FEBRUARY 12, 2013
[ Next Day → ]
[ °C ]   °F
Weather ElementAverageHighLow
Temperature31.7 °F39 °F (2:55 pm)27.3 °F (6:55 am)
Dewpoint26.8 °F29.3 °F (5:15 pm)25 °F (5:55 am)
Humidity82.5 %96 % (11:55 pm)64 % (2:55 pm)
Barometer30.07 in30.15 in (9:15 am)29.93 in (11:15 pm)
Wind Speed1.6 mph8.1 mph (9:15 am)
Weather ElementAverage
Visibility8.5 mi
Wind DirectionESE (103.9 °)

Weather ElementTotal
Precipitation---
Heating Degree Days31.9 (Base 65)
Averaged from 70 records on February 12, 2013
WEATHER CONDITIONS BREAKOUT
WIND DIRECTION BREAKOUT
WEATHER BY HOUR - FEBRUARY 12, 2013
[ °C ]   °F
Local TimeTemperatureDewpointHumidityBarometerVisibilityWind DirectionWind SpeedGust SpeedPrecipitationEventsConditions
12:35 AM30.2 °F26.2 °F85 %30.13 in10.0 miWest (270°)4.6 mphClear
12:55 AM30.0 °F26.1 °F85 %30.13 in10.0 miWest (270°)3.5 mphClear
1:15 AM30.0 °F26.1 °F85 %30.13 in10.0 miWest (270°)3.5 mphClear
1:35 AM29.7 °F25.7 °F85 %30.14 in10.0 miWest (260°)3.5 mphClear
1:55 AM29.8 °F25.7 °F85 %30.13 in10.0 miWest (270°)3.5 mphClear
2:15 AM29.3 °F25.5 °F86 %30.13 in10.0 miWest (270°)3.5 mphClear
2:35 AM29.3 °F25.5 °F86 %30.13 in10.0 miWest (260°)3.5 mphClear
2:55 AM29.1 °F25.5 °F86 %30.12 in10.0 miCalmClear
3:15 AM29.3 °F25.7 °F86 %30.13 in10.0 miCalmClear
3:35 AM28.9 °F25.5 °F87 %30.13 in10.0 miWSW (250°)3.5 mphClear
3:55 AM29.1 °F25.7 °F87 %30.13 in10.0 miCalmClear
4:15 AM28.9 °F25.5 °F87 %30.13 in10.0 miCalmClear
4:35 AM28.4 °F25.5 °F89 %30.12 in7.0 miWest (260°)3.5 mphClear
4:55 AM28.2 °F25.3 °F89 %30.12 in7.0 miCalmClear
5:15 AM28.0 °F25.3 °F90 %30.13 in7.0 miWSW (250°)3.5 mphClear
5:35 AM28.0 °F25.2 °F89 %30.13 in7.0 miCalmClear
5:55 AM27.7 °F25.0 °F90 %30.12 in7.0 miCalmClear
6:15 AM27.5 °F25.0 °F90 %30.12 in7.0 miCalmClear
6:35 AM27.5 °F25.0 °F90 %30.13 in7.0 miCalmClear
6:55 AM27.3 °F25.2 °F92 %30.13 in7.0 miCalmClear
7:15 AM27.5 °F25.2 °F91 %30.14 in5.0 miCalmClear
7:35 AM28.2 °F25.5 °F90 %30.14 in5.0 miCalmClear
7:55 AM29.1 °F25.7 °F87 %30.14 in7.0 miCalmScattered Clouds
8:15 AM30.0 °F26.1 °F85 %30.14 in7.0 miCalmOvercast
8:35 AM30.6 °F26.4 °F85 %30.13 in7.0 miNW (310°)5.8 mphScattered Clouds
8:55 AM30.7 °F26.4 °F84 %30.14 in7.0 miWNW (300°)4.6 mphMostly Cloudy
9:15 AM30.9 °F26.1 °F82 %30.15 in7.0 miWNW (300°)8.1 mphOvercast
9:35 AM30.9 °F25.7 °F81 %30.15 in7.0 miWNW (300°)6.9 mphOvercast
9:55 AM30.6 °F25.7 °F82 %30.14 in7.0 miWNW (300°)8.1 mphOvercast
10:15 AM31.1 °F25.9 °F81 %30.14 in7.0 miWest (280°)4.6 mphOvercast
10:35 AM31.1 °F25.9 °F81 %30.12 in7.0 miWNW (300°)3.5 mphOvercast
10:55 AM31.6 °F26.1 °F80 %30.11 in7.0 miCalmOvercast
11:15 AM32.0 °F26.2 °F79 %30.10 in10.0 miWNW (300°)4.6 mphOvercast
11:35 AM32.4 °F26.2 °F78 %30.10 in10.0 miWest (260°)3.5 mphOvercast
11:55 AM33.4 °F26.8 °F77 %30.11 in10.0 miCalmMostly Cloudy
12:15 PM33.8 °F27.0 °F76 %30.09 in10.0 miCalmOvercast
12:35 PM34.0 °F26.6 °F74 %30.08 in10.0 miWNW (300°)4.6 mphScattered Clouds
12:55 PM34.2 °F27.0 °F75 %30.08 in10.0 miNW (320°)3.5 mphMostly Cloudy
1:15 PM35.6 °F27.7 °F73 %30.07 in10.0 miWNW (290°)3.5 mphMostly Cloudy
1:35 PM36.5 °F27.0 °F68 %30.08 in10.0 miWSW (250°)4.6 mphScattered Clouds
1:55 PM37.0 °F27.3 °F68 %30.08 in10.0 miWSW (250°)4.6 mphScattered Clouds
2:15 PM37.4 °F27.5 °F67 %30.07 in10.0 miNW (320°)3.5 mphClear
2:35 PM38.3 °F27.9 °F66 %30.07 in10.0 miCalmClear
2:55 PM39.0 °F27.7 °F64 %30.06 in10.0 miCalmClear
3:15 PM37.9 °F27.1 °F65 %30.05 in10.0 miWest (260°)3.5 mphClear
3:35 PM38.1 °F27.3 °F65 %30.04 in10.0 miCalmClear
3:55 PM38.1 °F27.5 °F66 %30.02 in10.0 miCalmClear
4:15 PM37.0 °F27.1 °F67 %30.02 in10.0 miCalmClear
4:35 PM37.2 °F27.1 °F67 %30.01 in10.0 miCalmClear
4:55 PM36.7 °F27.0 °F68 %30.00 in10.0 miCalmClear
5:15 PM35.1 °F29.3 °F80 %30.00 in10.0 miCalmClear
5:35 PM34.7 °F28.6 °F78 %30.00 in10.0 miCalmClear
5:55 PM34.2 °F28.8 °F81 %30.00 in10.0 miCalmClear
6:15 PM33.6 °F28.2 °F81 %29.99 in10.0 miCalmClear
6:35 PM32.5 °F28.4 °F85 %29.99 in10.0 miCalmClear
6:55 PM32.2 °F28.8 °F87 %29.99 in10.0 miCalmClear
7:15 PM32.4 °F28.6 °F86 %29.98 in10.0 miCalmClear
7:35 PM32.0 °F28.9 °F88 %29.98 in7.0 miCalmClear
8:15 PM31.8 °F28.6 °F88 %29.97 in7.0 miCalmClear
8:35 PM31.6 °F28.6 °F88 %29.98 in7.0 miCalmClear
8:55 PM31.5 °F28.8 °F90 %29.97 in7.0 miCalmClear
9:15 PM31.3 °F28.2 °F88 %29.96 in7.0 miCalmClear
9:35 PM30.9 °F28.4 °F90 %29.96 in7.0 miCalmClear
9:55 PM30.6 °F28.4 °F92 %29.95 in7.0 miCalmClear
10:15 PM30.6 °F28.4 °F92 %29.94 in7.0 miCalmClear
10:35 PM30.9 °F28.6 °F91 %29.94 in7.0 miCalmClear
10:55 PM30.7 °F28.2 °F90 %29.94 in7.0 miCalmClear
11:15 PM30.0 °F28.0 °F92 %29.93 in7.0 miCalmClear
11:35 PM28.6 °F26.8 °F93 %29.94 in5.0 miCalmClear
11:55 PM27.9 °F26.8 °F96 %29.93 in5.0 miCalmClear
Hourly data recorded from KAAA, located miles away from Lincoln, Illinois







STORIES FROM OUR PARTNERS